EZY505T EGKK-LPMA

Flight info

Callsign EZY505T
Flight time 3h 41m
Altitude 35000
Route IMVUR N63 SAM M195 LORKU DCT POZOF DCT LOTEE DCT PINEK DCT VERAM DCT TELMU DCT PECKY DCT LIDRO
Aircraft A320/M-SDE3FGHIRWY/LB1

Departure

Time 2026-05-06 12:06
Airport London Gatwick Airport (EGKK)

Arrival

Time 2026-05-06 15:48
Airport Cristiano Ronaldo International Airport (LPMA)
Time Latitude Longitude Altitude Speed Heading
2026-05-06 11:14 51.15929 -0.17155 206 ft 0 kts 315°
2026-05-06 11:52 51.15927 -0.17151 203 ft 3 kts 315°
2026-05-06 11:53 51.15909 -0.17122 216 ft 4 kts 315°
2026-05-06 11:53 51.15893 -0.17098 213 ft 4 kts 306°
2026-05-06 11:53 51.15888 -0.17068 203 ft 4 kts 231°
2026-05-06 11:53 51.15906 -0.17045 216 ft 2 kts 213°
2026-05-06 11:54 51.15908 -0.17044 215 ft 0 kts 213°
2026-05-06 11:56 51.15906 -0.17045 216 ft 2 kts 213°
2026-05-06 11:56 51.15879 -0.17067 203 ft 6 kts 198°
2026-05-06 11:57 51.15825 -0.17090 208 ft 9 kts 207°
2026-05-06 11:57 51.15805 -0.17197 213 ft 12 kts 259°
2026-05-06 11:57 51.15784 -0.17339 203 ft 15 kts 258°
2026-05-06 11:57 51.15758 -0.17482 214 ft 12 kts 231°
2026-05-06 11:58 51.15678 -0.17483 203 ft 13 kts 168°
2026-05-06 11:58 51.15601 -0.17458 206 ft 11 kts 167°
2026-05-06 11:58 51.15544 -0.17486 211 ft 9 kts 240°
2026-05-06 11:58 51.15527 -0.17598 207 ft 12 kts 259°
2026-05-06 11:59 51.15505 -0.17754 203 ft 16 kts 257°
2026-05-06 11:59 51.15479 -0.17941 207 ft 18 kts 257°
2026-05-06 11:59 51.15453 -0.18126 207 ft 16 kts 258°
2026-05-06 11:59 51.15423 -0.18271 205 ft 14 kts 221°
2026-05-06 12:00 51.15334 -0.18257 208 ft 14 kts 168°
2026-05-06 12:00 51.15248 -0.18227 207 ft 13 kts 167°
2026-05-06 12:00 51.15187 -0.18296 214 ft 13 kts 264°
2026-05-06 12:00 51.15168 -0.18452 208 ft 16 kts 257°
2026-05-06 12:01 51.15143 -0.18640 212 ft 17 kts 258°
2026-05-06 12:01 51.15119 -0.18812 207 ft 17 kts 257°
2026-05-06 12:01 51.15094 -0.18991 206 ft 15 kts 257°
2026-05-06 12:01 51.15073 -0.19146 207 ft 14 kts 257°
2026-05-06 12:02 51.15029 -0.19268 206 ft 11 kts 192°
2026-05-06 12:02 51.14963 -0.19280 206 ft 11 kts 231°
2026-05-06 12:02 51.14942 -0.19433 215 ft 18 kts 257°
2026-05-06 12:02 51.14910 -0.19660 212 ft 22 kts 257°
2026-05-06 12:03 51.14877 -0.19896 211 ft 22 kts 257°
2026-05-06 12:03 51.14845 -0.20138 203 ft 22 kts 257°
2026-05-06 12:03 51.14812 -0.20379 212 ft 21 kts 259°
2026-05-06 12:03 51.14781 -0.20602 206 ft 22 kts 257°
2026-05-06 12:04 51.14748 -0.20847 207 ft 22 kts 256°
2026-05-06 12:04 51.14719 -0.21045 204 ft 17 kts 257°
2026-05-06 12:04 51.14695 -0.21237 211 ft 17 kts 258°
2026-05-06 12:04 51.14651 -0.21338 206 ft 10 kts 190°
2026-05-06 12:05 51.14584 -0.21315 213 ft 12 kts 163°
2026-05-06 12:05 51.14519 -0.21190 205 ft 18 kts 96°
2026-05-06 12:05 51.14549 -0.20958 206 ft 40 kts 77°
2026-05-06 12:05 51.14660 -0.20159 210 ft 105 kts 78°
2026-05-06 12:06 51.14855 -0.18746 202 ft 154 kts 78°
2026-05-06 12:06 51.15110 -0.16942 544 ft 170 kts 72°
2026-05-06 12:06 51.15360 -0.15104 1322 ft 170 kts 75°
2026-05-06 12:06 51.15623 -0.13166 1677 ft 190 kts 73°
2026-05-06 12:07 51.15909 -0.11010 1964 ft 210 kts 75°
2026-05-06 12:07 51.16233 -0.08649 2515 ft 222 kts 73°
2026-05-06 12:07 51.16782 -0.06377 3251 ft 220 kts 47°
2026-05-06 12:07 51.18029 -0.05081 3979 ft 216 kts 10°
2026-05-06 12:08 51.19512 -0.05191 4789 ft 215 kts 347°
2026-05-06 12:08 51.20969 -0.05736 5590 ft 216 kts 340°
2026-05-06 12:08 51.22204 -0.07071 6314 ft 220 kts 308°
2026-05-06 12:08 51.22787 -0.09396 6754 ft 243 kts 275°
2026-05-06 12:09 51.22581 -0.12208 7156 ft 264 kts 263°
2026-05-06 12:09 51.22237 -0.15125 7822 ft 271 kts 262°
2026-05-06 12:09 51.21878 -0.18060 8561 ft 276 kts 262°
2026-05-06 12:09 51.21508 -0.21087 9320 ft 280 kts 262°
2026-05-06 12:10 51.21135 -0.24159 10038 ft 285 kts 261°
2026-05-06 12:10 51.20761 -0.27281 10718 ft 288 kts 262°
2026-05-06 12:10 51.20389 -0.30434 11448 ft 290 kts 261°
2026-05-06 12:10 51.20019 -0.33612 12172 ft 292 kts 262°
2026-05-06 12:11 51.19639 -0.36811 12910 ft 295 kts 261°
2026-05-06 12:11 51.19229 -0.40027 13629 ft 298 kts 260°
2026-05-06 12:11 51.18800 -0.43270 14269 ft 300 kts 259°
2026-05-06 12:11 51.18362 -0.46542 14860 ft 304 kts 259°
2026-05-06 12:12 51.17921 -0.49844 15502 ft 305 kts 259°
2026-05-06 12:12 51.17444 -0.53150 16134 ft 308 kts 254°
2026-05-06 12:12 51.16657 -0.56402 16401 ft 324 kts 249°
2026-05-06 12:12 51.15759 -0.59805 16540 ft 342 kts 249°
2026-05-06 12:13 51.14805 -0.63364 16746 ft 356 kts 248°
2026-05-06 12:13 51.13819 -0.67018 17237 ft 361 kts 248°
2026-05-06 12:13 51.12824 -0.70696 17844 ft 362 kts 248°
2026-05-06 12:13 51.11825 -0.74400 18377 ft 366 kts 248°
2026-05-06 12:14 51.10830 -0.78104 18827 ft 370 kts 248°
2026-05-06 12:14 51.09820 -0.81873 19333 ft 372 kts 248°
2026-05-06 12:14 51.08804 -0.85665 19839 ft 373 kts 248°
2026-05-06 12:14 51.07782 -0.89473 20315 ft 376 kts 248°
2026-05-06 12:15 51.06748 -0.93317 20741 ft 379 kts 248°
2026-05-06 12:15 51.05704 -0.97179 21250 ft 381 kts 248°
2026-05-06 12:15 51.04669 -1.00999 21766 ft 383 kts 247°
2026-05-06 12:15 51.03612 -1.04894 22202 ft 386 kts 247°
2026-05-06 12:16 51.02542 -1.08831 22634 ft 389 kts 247°
2026-05-06 12:16 51.01466 -1.12777 23092 ft 390 kts 247°
2026-05-06 12:16 51.00384 -1.16738 23545 ft 393 kts 247°
2026-05-06 12:16 50.99294 -1.20732 23893 ft 396 kts 247°
2026-05-06 12:17 50.98196 -1.24750 24269 ft 398 kts 247°
2026-05-06 12:17 50.97077 -1.28773 24662 ft 399 kts 244°
2026-05-06 12:17 50.95640 -1.32562 24993 ft 403 kts 234°
2026-05-06 12:17 50.93776 -1.35906 25310 ft 407 kts 223°
2026-05-06 12:18 50.91540 -1.38687 25667 ft 410 kts 214°
2026-05-06 12:18 50.89141 -1.41163 25993 ft 413 kts 214°
2026-05-06 12:18 50.86726 -1.43657 26285 ft 416 kts 214°
2026-05-06 12:18 50.84301 -1.46174 26619 ft 418 kts 215°
2026-05-06 12:19 50.81865 -1.48708 26931 ft 420 kts 214°
2026-05-06 12:19 50.79412 -1.51254 27246 ft 423 kts 215°
2026-05-06 12:19 50.76947 -1.53811 27569 ft 425 kts 215°
2026-05-06 12:19 50.75309 -1.55508 27781 ft 426 kts 215°
2026-05-06 12:20 50.72821 -1.58079 28073 ft 429 kts 214°
2026-05-06 12:20 50.70321 -1.60660 28387 ft 431 kts 215°
2026-05-06 12:20 50.67807 -1.63250 28692 ft 433 kts 215°
2026-05-06 12:20 50.65281 -1.65849 28972 ft 435 kts 214°
2026-05-06 12:21 50.62736 -1.68464 29252 ft 437 kts 214°
2026-05-06 12:21 50.60184 -1.71084 29535 ft 439 kts 214°
2026-05-06 12:21 50.57618 -1.73715 29802 ft 441 kts 214°
2026-05-06 12:21 50.55046 -1.76349 30067 ft 443 kts 214°
2026-05-06 12:22 50.52459 -1.78997 30292 ft 445 kts 214°
2026-05-06 12:22 50.49864 -1.81649 30592 ft 444 kts 213°
2026-05-06 12:22 50.47277 -1.84287 30927 ft 443 kts 214°
2026-05-06 12:22 50.44723 -1.86885 31725 ft 428 kts 214°
2026-05-06 12:23 50.42257 -1.89382 32535 ft 417 kts 214°
2026-05-06 12:23 50.39833 -1.91834 33057 ft 413 kts 214°
2026-05-06 12:23 50.37423 -1.94276 33428 ft 412 kts 214°
2026-05-06 12:23 50.35025 -1.96713 33762 ft 411 kts 214°
2026-05-06 12:24 50.32626 -1.99148 34067 ft 410 kts 214°
2026-05-06 12:24 50.30232 -2.01569 34337 ft 410 kts 214°
2026-05-06 12:24 50.27836 -2.03985 34588 ft 409 kts 214°
2026-05-06 12:24 50.25444 -2.06393 34819 ft 409 kts 214°
2026-05-06 12:25 50.23049 -2.08797 34974 ft 411 kts 214°
2026-05-06 12:25 50.20637 -2.11177 35006 ft 409 kts 213°
2026-05-06 12:25 50.15806 -2.15861 35008 ft 409 kts 212°
2026-05-06 12:26 50.10963 -2.20540 35009 ft 410 kts 214°
2026-05-06 12:26 50.06124 -2.25226 35009 ft 410 kts 213°
2026-05-06 12:27 50.01289 -2.29909 35002 ft 409 kts 213°
2026-05-06 12:27 49.96491 -2.34532 35007 ft 408 kts 213°
2026-05-06 12:28 49.91502 -2.38739 34990 ft 410 kts 205°
2026-05-06 12:28 49.86301 -2.42362 34991 ft 410 kts 207°
2026-05-06 12:29 49.81097 -2.46003 34987 ft 411 kts 206°
2026-05-06 12:29 49.75887 -2.49643 34983 ft 411 kts 206°
2026-05-06 12:30 49.70666 -2.53259 34987 ft 411 kts 206°
2026-05-06 12:30 49.65440 -2.56875 34983 ft 412 kts 205°
2026-05-06 12:31 49.60209 -2.60496 34993 ft 412 kts 205°
2026-05-06 12:31 49.54971 -2.64114 34995 ft 413 kts 206°
2026-05-06 12:32 49.49730 -2.67716 34992 ft 413 kts 205°
2026-05-06 12:32 49.44486 -2.71314 34994 ft 413 kts 205°
2026-05-06 12:33 49.39244 -2.74912 34991 ft 413 kts 205°
2026-05-06 12:33 49.33998 -2.78499 34992 ft 413 kts 205°
2026-05-06 12:34 49.28753 -2.82078 34982 ft 413 kts 205°
2026-05-06 12:34 49.23540 -2.85618 34980 ft 413 kts 205°
2026-05-06 12:35 49.18288 -2.89173 34976 ft 413 kts 205°
2026-05-06 12:35 49.13036 -2.92729 34976 ft 413 kts 205°
2026-05-06 12:36 49.07788 -2.96280 34978 ft 413 kts 205°
2026-05-06 12:36 49.02533 -2.99819 34974 ft 413 kts 205°
2026-05-06 12:37 48.97268 -3.03355 34970 ft 414 kts 205°
2026-05-06 12:37 48.91996 -3.06891 34968 ft 415 kts 205°
2026-05-06 12:38 48.86720 -3.10431 34981 ft 414 kts 205°
2026-05-06 12:38 48.81452 -3.13956 34987 ft 414 kts 205°
2026-05-06 12:39 48.76182 -3.17459 34993 ft 413 kts 205°
2026-05-06 12:39 48.70916 -3.20960 34994 ft 413 kts 205°
2026-05-06 12:40 48.65651 -3.24456 34993 ft 413 kts 205°
2026-05-06 12:40 48.60508 -3.27860 34990 ft 413 kts 205°
2026-05-06 12:41 48.55239 -3.31337 34987 ft 413 kts 205°
2026-05-06 12:41 48.49963 -3.34802 34978 ft 414 kts 205°
2026-05-06 12:42 48.44686 -3.38272 34977 ft 414 kts 205°
2026-05-06 12:42 48.39405 -3.41736 34977 ft 414 kts 205°
2026-05-06 12:43 48.34121 -3.45191 34966 ft 414 kts 205°
2026-05-06 12:43 48.28833 -3.48636 34970 ft 414 kts 205°
2026-05-06 12:44 48.23550 -3.52080 34972 ft 414 kts 205°
2026-05-06 12:44 48.18271 -3.55517 34981 ft 414 kts 205°
2026-05-06 12:45 48.12981 -3.58946 34977 ft 414 kts 205°
2026-05-06 12:46 48.05043 -3.64059 34962 ft 414 kts 205°
2026-05-06 12:46 47.99762 -3.67469 34965 ft 414 kts 205°
2026-05-06 12:47 47.94508 -3.70855 34957 ft 414 kts 205°
2026-05-06 12:47 47.89211 -3.74253 34947 ft 415 kts 204°
2026-05-06 12:48 47.83906 -3.77651 34949 ft 415 kts 205°
2026-05-06 12:48 47.78595 -3.81049 34953 ft 415 kts 205°
2026-05-06 12:49 47.73283 -3.84430 34965 ft 415 kts 205°
2026-05-06 12:49 47.67978 -3.87806 34968 ft 415 kts 205°
2026-05-06 12:50 47.62672 -3.91180 34970 ft 415 kts 205°
2026-05-06 12:50 47.57362 -3.94542 34969 ft 415 kts 204°
2026-05-06 12:51 47.52051 -3.97894 34970 ft 415 kts 204°
2026-05-06 12:51 47.46729 -4.01240 34976 ft 416 kts 205°
2026-05-06 12:52 47.41401 -4.04593 34973 ft 417 kts 204°
2026-05-06 12:52 47.36067 -4.07942 34975 ft 417 kts 205°
2026-05-06 12:53 47.30759 -4.11264 34980 ft 417 kts 205°
2026-05-06 12:53 47.25410 -4.14610 34981 ft 418 kts 205°
2026-05-06 12:54 47.20056 -4.17951 34995 ft 418 kts 205°
2026-05-06 12:54 47.14710 -4.21275 35009 ft 417 kts 205°
2026-05-06 12:55 47.09372 -4.24583 35006 ft 416 kts 205°
2026-05-06 12:55 47.04047 -4.27927 34992 ft 416 kts 206°
2026-05-06 12:56 46.98792 -4.31509 34996 ft 417 kts 207°
2026-05-06 12:56 46.93564 -4.35170 34998 ft 417 kts 207°
2026-05-06 12:57 46.88313 -4.38780 35001 ft 417 kts 206°
2026-05-06 12:57 46.83083 -4.42337 34999 ft 418 kts 207°
2026-05-06 12:58 46.77811 -4.45920 34997 ft 418 kts 207°
2026-05-06 12:58 46.72534 -4.49503 35005 ft 418 kts 206°
2026-05-06 12:59 46.67249 -4.53066 35009 ft 419 kts 207°
2026-05-06 12:59 46.61962 -4.56630 35015 ft 419 kts 206°
2026-05-06 13:00 46.56676 -4.60191 35015 ft 419 kts 206°
2026-05-06 13:00 46.51385 -4.63734 35018 ft 419 kts 206°
2026-05-06 13:01 46.46092 -4.67277 35020 ft 419 kts 207°
2026-05-06 13:01 46.40800 -4.70824 35007 ft 419 kts 207°
2026-05-06 13:02 46.35495 -4.74367 35019 ft 420 kts 207°
2026-05-06 13:02 46.30188 -4.77906 35025 ft 420 kts 206°
2026-05-06 13:03 46.24874 -4.81427 35022 ft 420 kts 206°
2026-05-06 13:03 46.19567 -4.84939 35034 ft 419 kts 206°
2026-05-06 13:04 46.14271 -4.88435 35034 ft 419 kts 206°
2026-05-06 13:04 46.08977 -4.91923 35037 ft 418 kts 206°
2026-05-06 13:05 46.03688 -4.95412 35037 ft 418 kts 206°
2026-05-06 13:05 45.98482 -4.98846 35029 ft 419 kts 206°
2026-05-06 13:06 45.93180 -5.02326 35029 ft 419 kts 206°
2026-05-06 13:06 45.87872 -5.05790 35033 ft 419 kts 206°
2026-05-06 13:07 45.82560 -5.09259 35023 ft 420 kts 206°
2026-05-06 13:07 45.77282 -5.12708 35029 ft 419 kts 206°
2026-05-06 13:08 45.71974 -5.16156 35036 ft 418 kts 206°
2026-05-06 13:08 45.66681 -5.19591 35048 ft 417 kts 206°
2026-05-06 13:09 45.61391 -5.23015 35042 ft 417 kts 206°
2026-05-06 13:09 45.56098 -5.26429 35039 ft 417 kts 206°
2026-05-06 13:10 45.50807 -5.29844 35044 ft 418 kts 206°
2026-05-06 13:10 45.45514 -5.33254 35043 ft 418 kts 206°
2026-05-06 13:11 45.40213 -5.36660 35037 ft 418 kts 206°
2026-05-06 13:11 45.35805 -5.39483 35037 ft 418 kts 206°
2026-05-06 13:12 45.30499 -5.42876 35033 ft 418 kts 206°
2026-05-06 13:12 45.25210 -5.46258 35050 ft 416 kts 206°
2026-05-06 13:13 45.19931 -5.49622 35052 ft 415 kts 206°
2026-05-06 13:13 45.14664 -5.52973 35053 ft 415 kts 206°
2026-05-06 13:14 45.09405 -5.56311 35051 ft 414 kts 206°
2026-05-06 13:14 45.04143 -5.59640 35049 ft 414 kts 206°
2026-05-06 13:15 44.98886 -5.62961 35041 ft 414 kts 206°
2026-05-06 13:15 44.93627 -5.66280 35041 ft 414 kts 206°
2026-05-06 13:16 44.88366 -5.69595 35041 ft 414 kts 206°
2026-05-06 13:16 44.83135 -5.72868 35041 ft 413 kts 206°
2026-05-06 13:17 44.77883 -5.76152 35052 ft 412 kts 206°
2026-05-06 13:17 44.72648 -5.79423 35055 ft 411 kts 206°
2026-05-06 13:18 44.67425 -5.82699 35054 ft 411 kts 207°
2026-05-06 13:18 44.62666 -5.87020 35051 ft 407 kts 218°
2026-05-06 13:19 44.58119 -5.91753 35047 ft 407 kts 218°
2026-05-06 13:19 44.53565 -5.96479 35044 ft 407 kts 218°
2026-05-06 13:20 44.49013 -6.01199 35042 ft 407 kts 218°
2026-05-06 13:20 44.44454 -6.05908 35036 ft 407 kts 218°
2026-05-06 13:21 44.39895 -6.10602 35038 ft 407 kts 218°
2026-05-06 13:21 44.35343 -6.15289 35045 ft 406 kts 218°
2026-05-06 13:22 44.30828 -6.19941 35047 ft 406 kts 218°
2026-05-06 13:22 44.26288 -6.24608 35047 ft 405 kts 218°
2026-05-06 13:23 44.21747 -6.29256 35040 ft 405 kts 218°
2026-05-06 13:23 44.17200 -6.33892 35041 ft 405 kts 218°
2026-05-06 13:24 44.12655 -6.38520 35040 ft 405 kts 218°
2026-05-06 13:24 44.08115 -6.43152 35041 ft 405 kts 218°
2026-05-06 13:25 44.03576 -6.47776 35021 ft 404 kts 218°
2026-05-06 13:25 43.99033 -6.52386 35028 ft 404 kts 218°
2026-05-06 13:26 43.94485 -6.56972 35037 ft 404 kts 218°
2026-05-06 13:26 43.89941 -6.61557 35037 ft 404 kts 218°
2026-05-06 13:27 43.85400 -6.66142 35039 ft 404 kts 218°
2026-05-06 13:27 43.80887 -6.70686 35036 ft 404 kts 218°
2026-05-06 13:28 43.76341 -6.75241 35035 ft 404 kts 218°
2026-05-06 13:28 43.71793 -6.79790 35037 ft 403 kts 218°
2026-05-06 13:29 43.67248 -6.84339 35038 ft 403 kts 218°
2026-05-06 13:29 43.62709 -6.88880 35040 ft 403 kts 218°
2026-05-06 13:30 43.58169 -6.93413 35032 ft 403 kts 218°
2026-05-06 13:30 43.53628 -6.97926 35031 ft 402 kts 218°
2026-05-06 13:31 43.49085 -7.02435 35037 ft 402 kts 218°
2026-05-06 13:31 43.44544 -7.06942 35033 ft 402 kts 218°
2026-05-06 13:32 43.40001 -7.11439 35024 ft 402 kts 218°
2026-05-06 13:32 43.35492 -7.15886 35031 ft 401 kts 217°
2026-05-06 13:33 43.30957 -7.20347 35032 ft 401 kts 217°
2026-05-06 13:33 43.26429 -7.24806 35034 ft 401 kts 217°
2026-05-06 13:34 43.21899 -7.29248 35039 ft 400 kts 217°
2026-05-06 13:34 43.17371 -7.33682 35032 ft 400 kts 217°
2026-05-06 13:35 43.12852 -7.38104 35034 ft 399 kts 217°
2026-05-06 13:35 43.08335 -7.42515 35025 ft 399 kts 217°
2026-05-06 13:36 43.03817 -7.46911 35033 ft 398 kts 217°
2026-05-06 13:36 42.99305 -7.51309 35021 ft 398 kts 217°
2026-05-06 13:37 42.94796 -7.55694 35014 ft 398 kts 217°
2026-05-06 13:37 42.90289 -7.60063 35018 ft 397 kts 217°
2026-05-06 13:38 42.85779 -7.64420 35022 ft 397 kts 217°
2026-05-06 13:38 42.81274 -7.68765 35025 ft 396 kts 217°
2026-05-06 13:39 42.76774 -7.73097 35027 ft 396 kts 217°
2026-05-06 13:39 42.72314 -7.77390 35023 ft 396 kts 217°
2026-05-06 13:40 42.67886 -7.81644 35016 ft 395 kts 217°
2026-05-06 13:40 42.63396 -7.85943 35015 ft 395 kts 217°
2026-05-06 13:41 42.58905 -7.90235 35018 ft 394 kts 217°
2026-05-06 13:41 42.54421 -7.94523 35013 ft 394 kts 217°
2026-05-06 13:42 42.49935 -7.98805 35006 ft 394 kts 217°
2026-05-06 13:42 42.45446 -8.03075 35024 ft 394 kts 217°
2026-05-06 13:43 42.40958 -8.07339 35001 ft 394 kts 217°
2026-05-06 13:43 42.36468 -8.11597 35001 ft 394 kts 216°
2026-05-06 13:44 42.31973 -8.15848 34995 ft 394 kts 216°
2026-05-06 13:44 42.27483 -8.20089 35016 ft 394 kts 216°
2026-05-06 13:45 42.22998 -8.24327 34997 ft 393 kts 216°
2026-05-06 13:45 42.16299 -8.30635 34994 ft 393 kts 216°
2026-05-06 13:46 42.11814 -8.34845 35007 ft 393 kts 216°
2026-05-06 13:46 42.07328 -8.39048 35005 ft 393 kts 216°
2026-05-06 13:47 42.02849 -8.43243 35000 ft 392 kts 216°
2026-05-06 13:47 41.98371 -8.47424 34993 ft 392 kts 216°
2026-05-06 13:48 41.93890 -8.51600 35006 ft 392 kts 216°
2026-05-06 13:48 41.89406 -8.55771 35005 ft 392 kts 216°
2026-05-06 13:49 41.84922 -8.59947 35003 ft 392 kts 217°
2026-05-06 13:49 41.80620 -8.64422 35011 ft 391 kts 221°
2026-05-06 13:50 41.76477 -8.69142 35013 ft 391 kts 221°
2026-05-06 13:50 41.72326 -8.73830 35003 ft 390 kts 221°
2026-05-06 13:51 41.68127 -8.78440 34997 ft 390 kts 220°
2026-05-06 13:51 41.63909 -8.83022 35005 ft 391 kts 220°
2026-05-06 13:52 41.59695 -8.87606 35011 ft 391 kts 220°
2026-05-06 13:52 41.55483 -8.92191 35014 ft 390 kts 221°
2026-05-06 13:53 41.51277 -8.96775 35018 ft 390 kts 220°
2026-05-06 13:53 41.47068 -9.01348 35017 ft 390 kts 220°
2026-05-06 13:54 41.42855 -9.05902 35018 ft 390 kts 220°
2026-05-06 13:54 41.38641 -9.10457 35015 ft 390 kts 221°
2026-05-06 13:55 41.34421 -9.15000 35014 ft 390 kts 220°
2026-05-06 13:55 41.30200 -9.19550 35013 ft 391 kts 221°
2026-05-06 13:56 41.25978 -9.24101 35017 ft 391 kts 220°
2026-05-06 13:56 41.21749 -9.28645 35023 ft 391 kts 220°
2026-05-06 13:57 41.17521 -9.33180 35012 ft 391 kts 221°
2026-05-06 13:57 41.13288 -9.37709 35017 ft 391 kts 221°
2026-05-06 13:58 41.09083 -9.42196 35019 ft 390 kts 221°
2026-05-06 13:58 41.04823 -9.46742 35022 ft 390 kts 221°
2026-05-06 13:59 41.00614 -9.51218 35028 ft 391 kts 221°
2026-05-06 13:59 40.96369 -9.55728 35023 ft 391 kts 221°
2026-05-06 14:00 40.92126 -9.60233 35014 ft 391 kts 221°
2026-05-06 14:00 40.87884 -9.64731 35023 ft 391 kts 221°
2026-05-06 14:01 40.83636 -9.69220 35038 ft 391 kts 221°
2026-05-06 14:01 40.79385 -9.73705 35037 ft 391 kts 221°
2026-05-06 14:02 40.75850 -9.77432 35039 ft 391 kts 221°
2026-05-06 14:02 40.71592 -9.81910 35042 ft 391 kts 221°
2026-05-06 14:03 40.67336 -9.86383 35043 ft 391 kts 221°
2026-05-06 14:03 40.63084 -9.90856 35045 ft 391 kts 221°
2026-05-06 14:04 40.58830 -9.95314 35043 ft 391 kts 221°
2026-05-06 14:04 40.54570 -9.99760 35047 ft 391 kts 221°
2026-05-06 14:05 40.50308 -10.04203 35049 ft 391 kts 221°
2026-05-06 14:05 40.46043 -10.08645 35036 ft 391 kts 221°
2026-05-06 14:06 40.41844 -10.13017 35042 ft 391 kts 221°
2026-05-06 14:06 40.37585 -10.17447 35045 ft 390 kts 221°
2026-05-06 14:07 40.33321 -10.21854 35050 ft 390 kts 221°
2026-05-06 14:07 40.29061 -10.26263 35045 ft 390 kts 221°
2026-05-06 14:08 40.24798 -10.30670 35046 ft 390 kts 221°
2026-05-06 14:08 40.20536 -10.35073 35047 ft 390 kts 221°
2026-05-06 14:09 40.16270 -10.39465 35042 ft 390 kts 221°
2026-05-06 14:09 40.12002 -10.43856 35049 ft 390 kts 221°
2026-05-06 14:10 40.07732 -10.48233 35048 ft 390 kts 221°
2026-05-06 14:10 40.03464 -10.52612 35047 ft 390 kts 221°
2026-05-06 14:11 39.99194 -10.56978 35039 ft 390 kts 221°
2026-05-06 14:11 39.94923 -10.61347 35029 ft 390 kts 221°
2026-05-06 14:12 39.90652 -10.65707 35034 ft 390 kts 221°
2026-05-06 14:12 39.86408 -10.70029 35037 ft 390 kts 221°
2026-05-06 14:13 39.82109 -10.74384 35060 ft 391 kts 221°
2026-05-06 14:13 39.77820 -10.78735 35059 ft 391 kts 221°
2026-05-06 14:14 39.73530 -10.83086 35050 ft 391 kts 221°
2026-05-06 14:14 39.69239 -10.87432 35065 ft 391 kts 221°
2026-05-06 14:15 39.64946 -10.91765 35065 ft 391 kts 221°
2026-05-06 14:15 39.60648 -10.96097 35061 ft 391 kts 221°
2026-05-06 14:16 39.56342 -11.00422 35059 ft 392 kts 221°
2026-05-06 14:16 39.52038 -11.04760 35056 ft 392 kts 221°
2026-05-06 14:17 39.47734 -11.09093 35050 ft 392 kts 221°
2026-05-06 14:17 39.43423 -11.13409 35052 ft 392 kts 221°
2026-05-06 14:18 39.39103 -11.17722 35055 ft 392 kts 221°
2026-05-06 14:18 39.34816 -11.22001 35058 ft 392 kts 221°
2026-05-06 14:19 39.30498 -11.26302 35057 ft 392 kts 221°
2026-05-06 14:19 39.26178 -11.30611 35060 ft 392 kts 221°
2026-05-06 14:20 39.21851 -11.34909 35040 ft 393 kts 221°
2026-05-06 14:20 39.17512 -11.39212 35046 ft 394 kts 221°
2026-05-06 14:21 39.13162 -11.43524 35054 ft 395 kts 221°
2026-05-06 14:21 39.08807 -11.47835 35059 ft 395 kts 221°
2026-05-06 14:22 39.04440 -11.52133 35064 ft 395 kts 221°
2026-05-06 14:22 39.00071 -11.56436 35048 ft 395 kts 221°
2026-05-06 14:23 38.95704 -11.60745 35052 ft 396 kts 221°
2026-05-06 14:23 38.91329 -11.65053 35057 ft 396 kts 221°
2026-05-06 14:24 38.86949 -11.69356 35060 ft 397 kts 221°
2026-05-06 14:24 38.82561 -11.73647 35063 ft 397 kts 221°
2026-05-06 14:25 38.78203 -11.77910 35071 ft 397 kts 221°
2026-05-06 14:25 38.73816 -11.82198 35048 ft 397 kts 221°
2026-05-06 14:26 38.69421 -11.86478 35057 ft 397 kts 221°
2026-05-06 14:26 38.65020 -11.90752 35059 ft 397 kts 221°
2026-05-06 14:27 38.60615 -11.95032 35064 ft 398 kts 221°
2026-05-06 14:27 38.56211 -11.99304 35063 ft 398 kts 221°
2026-05-06 14:28 38.51800 -12.03570 35065 ft 398 kts 221°
2026-05-06 14:28 38.47391 -12.07844 35038 ft 398 kts 221°
2026-05-06 14:29 38.42969 -12.12120 35047 ft 400 kts 221°
2026-05-06 14:29 38.38529 -12.16399 35052 ft 400 kts 221°
2026-05-06 14:30 38.34082 -12.20681 35055 ft 401 kts 221°
2026-05-06 14:30 38.29633 -12.24965 35060 ft 401 kts 221°
2026-05-06 14:31 38.25180 -12.29246 35066 ft 401 kts 221°
2026-05-06 14:31 38.20720 -12.33518 35055 ft 402 kts 221°
2026-05-06 14:32 38.16251 -12.37786 35064 ft 402 kts 221°
2026-05-06 14:32 38.11808 -12.42028 35052 ft 402 kts 221°
2026-05-06 14:33 38.07328 -12.46302 35062 ft 403 kts 221°
2026-05-06 14:33 38.02831 -12.50579 35063 ft 404 kts 221°
2026-05-06 14:34 37.98327 -12.54857 35062 ft 405 kts 221°
2026-05-06 14:34 37.93820 -12.59135 35050 ft 405 kts 221°
2026-05-06 14:35 37.89304 -12.63420 35059 ft 406 kts 221°
2026-05-06 14:35 37.84777 -12.67704 35064 ft 406 kts 221°
2026-05-06 14:36 37.80244 -12.71988 35067 ft 407 kts 221°
2026-05-06 14:36 37.75710 -12.76264 35070 ft 407 kts 221°
2026-05-06 14:37 37.71168 -12.80539 35057 ft 408 kts 221°
2026-05-06 14:37 37.66613 -12.84821 35060 ft 409 kts 221°
2026-05-06 14:38 37.62048 -12.89105 35063 ft 409 kts 221°
2026-05-06 14:38 37.57476 -12.93390 35066 ft 410 kts 221°
2026-05-06 14:39 37.52896 -12.97676 35071 ft 410 kts 221°
2026-05-06 14:39 37.48317 -13.01953 35073 ft 410 kts 221°
2026-05-06 14:40 37.43738 -13.06237 35060 ft 410 kts 221°
2026-05-06 14:40 37.39177 -13.10487 35066 ft 411 kts 221°
2026-05-06 14:41 37.34574 -13.14758 35054 ft 412 kts 221°
2026-05-06 14:41 37.29957 -13.19040 35060 ft 413 kts 221°
2026-05-06 14:42 37.25333 -13.23337 35067 ft 414 kts 221°
2026-05-06 14:42 37.20694 -13.27641 35070 ft 415 kts 221°
2026-05-06 14:43 37.16042 -13.31939 35056 ft 416 kts 221°
2026-05-06 14:43 37.11375 -13.36240 35065 ft 417 kts 221°
2026-05-06 14:44 37.06701 -13.40545 35069 ft 417 kts 221°
2026-05-06 14:45 36.99684 -13.47012 35074 ft 418 kts 221°
2026-05-06 14:45 36.94987 -13.51307 35060 ft 418 kts 221°
2026-05-06 14:46 36.90275 -13.55623 35071 ft 422 kts 221°
2026-05-06 14:46 36.85535 -13.59957 35069 ft 422 kts 221°
2026-05-06 14:47 36.80790 -13.64288 35080 ft 423 kts 221°
2026-05-06 14:47 36.76047 -13.68551 35076 ft 424 kts 219°
2026-05-06 14:48 36.71050 -13.72493 35083 ft 426 kts 216°
2026-05-06 14:48 36.65912 -13.76274 35070 ft 426 kts 216°
2026-05-06 14:49 36.60828 -13.80066 35079 ft 426 kts 216°
2026-05-06 14:49 36.55776 -13.83906 35082 ft 425 kts 217°
2026-05-06 14:50 36.50738 -13.87763 35060 ft 426 kts 217°
2026-05-06 14:50 36.45715 -13.91598 35068 ft 427 kts 217°
2026-05-06 14:51 36.40638 -13.95457 35059 ft 428 kts 217°
2026-05-06 14:51 36.35546 -13.99311 35070 ft 429 kts 217°
2026-05-06 14:52 36.30452 -14.03154 35074 ft 429 kts 217°
2026-05-06 14:52 36.25441 -14.06941 35078 ft 429 kts 217°
2026-05-06 14:53 36.21209 -14.10131 35082 ft 429 kts 217°
2026-05-06 14:53 36.16117 -14.13973 35083 ft 429 kts 217°
2026-05-06 14:54 36.11020 -14.17803 35076 ft 428 kts 217°
2026-05-06 14:54 36.05927 -14.21625 35055 ft 428 kts 217°
2026-05-06 14:55 36.00806 -14.25460 35077 ft 432 kts 217°
2026-05-06 14:55 35.95667 -14.29313 35081 ft 432 kts 217°
2026-05-06 14:56 35.90526 -14.33160 35085 ft 432 kts 217°
2026-05-06 14:56 35.85382 -14.37000 35080 ft 432 kts 217°
2026-05-06 14:57 35.80241 -14.40832 35083 ft 432 kts 217°
2026-05-06 14:57 35.75099 -14.44650 35086 ft 431 kts 217°
2026-05-06 14:58 35.69964 -14.48460 35093 ft 431 kts 217°
2026-05-06 14:58 35.64827 -14.52271 35097 ft 431 kts 217°
2026-05-06 14:59 35.59693 -14.56080 35073 ft 431 kts 217°
2026-05-06 14:59 35.54586 -14.59860 35091 ft 433 kts 217°
2026-05-06 15:00 35.49413 -14.63676 35092 ft 434 kts 217°
2026-05-06 15:00 35.44245 -14.67486 35094 ft 434 kts 217°
2026-05-06 15:01 35.39040 -14.71322 35096 ft 433 kts 217°
2026-05-06 15:01 35.33900 -14.75095 35088 ft 433 kts 217°
2026-05-06 15:02 35.28729 -14.78889 35077 ft 433 kts 217°
2026-05-06 15:02 35.23556 -14.82669 35085 ft 433 kts 217°
2026-05-06 15:03 35.18384 -14.86441 35091 ft 433 kts 217°
2026-05-06 15:03 35.13214 -14.90223 35095 ft 433 kts 217°
2026-05-06 15:04 35.08043 -14.94002 35084 ft 433 kts 217°
2026-05-06 15:04 35.02867 -14.97771 35077 ft 434 kts 217°
2026-05-06 15:05 34.97680 -15.01543 35087 ft 435 kts 217°
2026-05-06 15:05 34.92480 -15.05318 35096 ft 435 kts 217°
2026-05-06 15:06 34.87275 -15.09092 35091 ft 436 kts 217°
2026-05-06 15:06 34.82064 -15.12864 35087 ft 436 kts 217°
2026-05-06 15:07 34.76841 -15.16631 34821 ft 437 kts 216°
2026-05-06 15:07 34.74220 -15.18523 34584 ft 441 kts 216°
2026-05-06 15:07 34.71610 -15.20413 34347 ft 443 kts 216°
2026-05-06 15:07 34.68962 -15.22325 34119 ft 442 kts 216°
2026-05-06 15:08 34.66321 -15.24224 33849 ft 441 kts 216°
2026-05-06 15:08 34.63685 -15.26117 33576 ft 439 kts 216°
2026-05-06 15:08 34.61058 -15.28005 33304 ft 438 kts 216°
2026-05-06 15:08 34.58440 -15.29887 33040 ft 437 kts 216°
2026-05-06 15:09 34.55832 -15.31759 32776 ft 435 kts 216°
2026-05-06 15:09 34.53226 -15.33626 32514 ft 434 kts 216°
2026-05-06 15:09 34.50627 -15.35489 32238 ft 433 kts 216°
2026-05-06 15:09 34.48041 -15.37341 31986 ft 431 kts 216°
2026-05-06 15:10 34.45465 -15.39186 31730 ft 430 kts 216°
2026-05-06 15:10 34.42892 -15.41032 31476 ft 429 kts 217°
2026-05-06 15:10 34.40328 -15.42873 31230 ft 428 kts 217°
2026-05-06 15:10 34.37768 -15.44710 30981 ft 427 kts 217°
2026-05-06 15:11 34.35218 -15.46540 30739 ft 426 kts 217°
2026-05-06 15:11 34.32666 -15.48363 30493 ft 425 kts 217°
2026-05-06 15:11 34.30121 -15.50173 30261 ft 424 kts 217°
2026-05-06 15:11 34.27582 -15.51978 29989 ft 423 kts 217°
2026-05-06 15:12 34.25050 -15.53780 29704 ft 421 kts 217°
2026-05-06 15:12 34.22536 -15.55568 29408 ft 417 kts 216°
2026-05-06 15:12 34.20073 -15.57318 29130 ft 415 kts 216°
2026-05-06 15:12 34.17592 -15.59078 28860 ft 412 kts 216°
2026-05-06 15:13 34.15094 -15.60849 28592 ft 410 kts 216°
2026-05-06 15:13 34.12678 -15.62562 28332 ft 407 kts 216°
2026-05-06 15:13 34.10241 -15.64290 28042 ft 405 kts 216°
2026-05-06 15:13 34.07810 -15.66015 27775 ft 406 kts 217°
2026-05-06 15:14 34.05375 -15.67743 27523 ft 405 kts 217°
2026-05-06 15:14 34.02954 -15.69460 27267 ft 403 kts 217°
2026-05-06 15:14 34.00539 -15.71170 27010 ft 401 kts 216°
2026-05-06 15:14 33.98135 -15.72866 26758 ft 399 kts 216°
2026-05-06 15:15 33.95745 -15.74552 26494 ft 397 kts 216°
2026-05-06 15:15 33.93371 -15.76226 26243 ft 394 kts 216°
2026-05-06 15:15 33.91010 -15.77890 25993 ft 392 kts 216°
2026-05-06 15:15 33.88664 -15.79545 25755 ft 390 kts 216°
2026-05-06 15:16 33.86330 -15.81188 25509 ft 386 kts 216°
2026-05-06 15:16 33.84016 -15.82817 25100 ft 384 kts 216°
2026-05-06 15:16 33.81713 -15.84441 24644 ft 384 kts 216°
2026-05-06 15:16 33.79409 -15.86064 24186 ft 384 kts 216°
2026-05-06 15:17 33.77105 -15.87687 23725 ft 384 kts 216°
2026-05-06 15:17 33.74804 -15.89308 23206 ft 383 kts 215°
2026-05-06 15:17 33.72512 -15.90920 22749 ft 381 kts 215°
2026-05-06 15:17 33.70230 -15.92522 22292 ft 379 kts 215°
2026-05-06 15:18 33.67963 -15.94110 21840 ft 376 kts 215°
2026-05-06 15:18 33.65717 -15.95692 21405 ft 374 kts 216°
2026-05-06 15:18 33.63506 -15.97332 20964 ft 371 kts 217°
2026-05-06 15:18 33.61341 -15.99002 20528 ft 369 kts 217°
2026-05-06 15:19 33.59198 -16.00683 20085 ft 367 kts 217°
2026-05-06 15:19 33.57066 -16.02357 19661 ft 366 kts 217°
2026-05-06 15:19 33.54937 -16.04018 19241 ft 365 kts 217°
2026-05-06 15:19 33.52806 -16.05666 18811 ft 364 kts 217°
2026-05-06 15:20 33.50676 -16.07299 18379 ft 363 kts 216°
2026-05-06 15:20 33.48550 -16.08923 17926 ft 362 kts 216°
2026-05-06 15:20 33.46436 -16.10535 17507 ft 359 kts 216°
2026-05-06 15:20 33.44337 -16.12134 17096 ft 356 kts 216°
2026-05-06 15:21 33.42255 -16.13719 16694 ft 354 kts 216°
2026-05-06 15:21 33.40182 -16.15296 16278 ft 352 kts 216°
2026-05-06 15:21 33.38124 -16.16864 15892 ft 350 kts 216°
2026-05-06 15:21 33.36078 -16.18424 15498 ft 348 kts 216°
2026-05-06 15:22 33.34044 -16.19980 15108 ft 346 kts 216°
2026-05-06 15:22 33.32022 -16.21526 14770 ft 343 kts 216°
2026-05-06 15:22 33.30008 -16.23059 14381 ft 341 kts 216°
2026-05-06 15:22 33.28020 -16.24567 13947 ft 336 kts 215°
2026-05-06 15:23 33.26054 -16.26056 13529 ft 333 kts 215°
2026-05-06 15:23 33.24135 -16.27510 13149 ft 329 kts 215°
2026-05-06 15:23 33.22212 -16.28965 12768 ft 326 kts 215°
2026-05-06 15:23 33.20305 -16.30410 12388 ft 323 kts 215°
2026-05-06 15:24 33.18393 -16.31863 12003 ft 320 kts 215°
2026-05-06 15:24 33.16543 -16.33267 11624 ft 319 kts 215°
2026-05-06 15:24 33.14675 -16.34686 11243 ft 318 kts 215°
2026-05-06 15:24 33.12813 -16.36100 10850 ft 316 kts 215°
2026-05-06 15:25 33.10958 -16.37504 10465 ft 315 kts 215°
2026-05-06 15:25 33.09131 -16.38884 10290 ft 306 kts 215°
2026-05-06 15:25 33.07345 -16.40232 9982 ft 302 kts 215°
2026-05-06 15:25 33.05580 -16.41564 9719 ft 299 kts 215°
2026-05-06 15:26 33.03831 -16.42887 9469 ft 296 kts 215°
2026-05-06 15:26 33.02098 -16.44198 9214 ft 294 kts 215°
2026-05-06 15:26 33.00373 -16.45501 8954 ft 293 kts 215°
2026-05-06 15:26 32.98657 -16.46795 8699 ft 292 kts 215°
2026-05-06 15:27 32.96957 -16.48076 8441 ft 286 kts 215°
2026-05-06 15:27 32.95294 -16.49326 8188 ft 280 kts 215°
2026-05-06 15:27 32.93667 -16.50550 7939 ft 274 kts 215°
2026-05-06 15:27 32.92168 -16.51887 7689 ft 265 kts 226°
2026-05-06 15:28 32.90815 -16.53345 7444 ft 260 kts 225°
2026-05-06 15:28 32.89483 -16.54772 7198 ft 255 kts 225°
2026-05-06 15:28 32.88177 -16.56170 6958 ft 250 kts 225°
2026-05-06 15:28 32.86895 -16.57541 6713 ft 246 kts 225°
2026-05-06 15:29 32.85635 -16.58885 6466 ft 241 kts 225°
2026-05-06 15:29 32.84615 -16.60402 6195 ft 231 kts 250°
2026-05-06 15:29 32.84314 -16.62223 5949 ft 223 kts 277°
2026-05-06 15:29 32.84719 -16.63965 5693 ft 219 kts 302°
2026-05-06 15:30 32.85712 -16.65306 5437 ft 217 kts 326°
2026-05-06 15:30 32.87081 -16.66003 5186 ft 215 kts 350°
2026-05-06 15:30 32.88576 -16.65930 4934 ft 218 kts 14°
2026-05-06 15:30 32.89916 -16.65076 4672 ft 222 kts 36°
2026-05-06 15:31 32.91076 -16.63874 4414 ft 221 kts 39°
2026-05-06 15:31 32.92198 -16.62633 4162 ft 220 kts 40°
2026-05-06 15:31 32.93308 -16.61390 3900 ft 219 kts 40°
2026-05-06 15:32 32.95424 -16.58832 3619 ft 219 kts 55°
2026-05-06 15:32 32.95946 -16.57124 3498 ft 224 kts 82°
2026-05-06 15:32 32.95773 -16.55276 3370 ft 230 kts 108°
2026-05-06 15:32 32.94890 -16.53686 3240 ft 235 kts 136°
2026-05-06 15:33 32.93456 -16.52758 3123 ft 239 kts 166°
2026-05-06 15:33 32.91838 -16.52747 3018 ft 237 kts 196°
2026-05-06 15:33 32.90403 -16.53631 3016 ft 234 kts 223°
2026-05-06 15:33 32.89177 -16.54914 3015 ft 235 kts 225°
2026-05-06 15:34 32.87979 -16.56233 3012 ft 234 kts 225°
2026-05-06 15:34 32.86782 -16.57564 3013 ft 236 kts 226°
2026-05-06 15:34 32.85585 -16.58896 3012 ft 235 kts 226°
2026-05-06 15:34 32.84630 -16.60427 3008 ft 229 kts 252°
2026-05-06 15:35 32.84394 -16.62251 3011 ft 222 kts 280°
2026-05-06 15:35 32.84883 -16.63947 3011 ft 215 kts 308°
2026-05-06 15:35 32.85937 -16.65160 3012 ft 211 kts 332°
2026-05-06 15:35 32.87321 -16.65685 3011 ft 211 kts 357°
2026-05-06 15:36 32.88756 -16.65422 3013 ft 212 kts 22°
2026-05-06 15:36 32.89980 -16.64446 3013 ft 214 kts 39°
2026-05-06 15:36 32.91089 -16.63264 3013 ft 214 kts 41°
2026-05-06 15:36 32.92173 -16.62064 3012 ft 212 kts 41°
2026-05-06 15:37 32.93253 -16.60859 3014 ft 214 kts 40°
2026-05-06 15:37 32.94336 -16.59654 3010 ft 213 kts 41°
2026-05-06 15:37 32.95229 -16.58245 3012 ft 217 kts 63°
2026-05-06 15:37 32.95532 -16.56505 3012 ft 215 kts 90°
2026-05-06 15:38 32.95138 -16.54802 3014 ft 216 kts 117°
2026-05-06 15:38 32.94118 -16.53483 3014 ft 220 kts 146°
2026-05-06 15:38 32.93791 -16.53256 3014 ft 221 kts 153°
2026-05-06 15:38 32.93230 -16.52994 3014 ft 222 kts 165°
2026-05-06 15:39 32.91699 -16.52930 3015 ft 222 kts 194°
2026-05-06 15:39 32.90333 -16.53724 3016 ft 219 kts 222°
2026-05-06 15:39 32.89185 -16.54919 3015 ft 221 kts 225°
2026-05-06 15:39 32.88060 -16.56156 3013 ft 219 kts 226°
2026-05-06 15:40 32.86937 -16.57404 3013 ft 222 kts 226°
2026-05-06 15:40 32.85814 -16.58651 3013 ft 220 kts 225°
2026-05-06 15:40 32.84639 -16.59822 3013 ft 221 kts 219°
2026-05-06 15:40 32.83414 -16.60872 3011 ft 220 kts 217°
2026-05-06 15:41 32.82175 -16.61887 3003 ft 214 kts 217°
2026-05-06 15:41 32.80945 -16.62885 3014 ft 213 kts 217°
2026-05-06 15:41 32.79726 -16.63874 3039 ft 213 kts 217°
2026-05-06 15:41 32.78905 -16.64543 3020 ft 209 kts 217°
2026-05-06 15:42 32.77344 -16.65817 3011 ft 204 kts 217°
2026-05-06 15:42 32.76178 -16.66773 2896 ft 205 kts 217°
2026-05-06 15:42 32.75017 -16.67728 2631 ft 201 kts 217°
2026-05-06 15:42 32.74246 -16.68364 2466 ft 198 kts 217°
2026-05-06 15:43 32.73124 -16.69290 2188 ft 194 kts 218°
2026-05-06 15:43 32.72031 -16.70192 1926 ft 187 kts 216°
2026-05-06 15:43 32.70986 -16.71055 1705 ft 178 kts 216°
2026-05-06 15:43 32.69976 -16.71887 1431 ft 178 kts 216°
2026-05-06 15:44 32.68950 -16.72732 1197 ft 178 kts 215°
2026-05-06 15:44 32.67960 -16.73550 1104 ft 175 kts 218°
2026-05-06 15:44 32.66966 -16.74391 1024 ft 176 kts 217°
2026-05-06 15:44 32.65971 -16.75238 1013 ft 176 kts 217°
2026-05-06 15:45 32.64999 -16.76116 1009 ft 177 kts 218°
2026-05-06 15:45 32.63979 -16.76935 1007 ft 176 kts 213°
2026-05-06 15:45 32.63123 -16.77932 999 ft 172 kts 251°
2026-05-06 15:45 32.63041 -16.79268 1016 ft 161 kts 288°
2026-05-06 15:46 32.63586 -16.80396 962 ft 155 kts 322°
2026-05-06 15:46 32.64498 -16.80920 875 ft 140 kts 355°
2026-05-06 15:46 32.65425 -16.80804 833 ft 133 kts 12°
2026-05-06 15:46 32.66297 -16.80516 683 ft 131 kts 16°
2026-05-06 15:47 32.67179 -16.80093 561 ft 142 kts 24°
2026-05-06 15:47 32.68022 -16.79480 406 ft 137 kts 36°
2026-05-06 15:47 32.68699 -16.78714 266 ft 134 kts 40°
2026-05-06 15:47 32.69340 -16.77973 170 ft 115 kts 43°
2026-05-06 15:48 32.69775 -16.77463 183 ft 62 kts 44°
2026-05-06 15:48 32.69942 -16.77265 195 ft 16 kts 46°
2026-05-06 15:48 32.69924 -16.77177 188 ft 13 kts 175°
2026-05-06 15:48 32.69851 -16.77179 183 ft 11 kts 187°
2026-05-06 15:49 32.69796 -16.77231 180 ft 11 kts 228°
2026-05-06 15:49 32.69738 -16.77303 173 ft 13 kts 226°
2026-05-06 15:49 32.69671 -16.77384 169 ft 12 kts 225°
2026-05-06 15:49 32.69613 -16.77455 169 ft 13 kts 226°
2026-05-06 15:50 32.69542 -16.77543 169 ft 16 kts 226°
2026-05-06 15:50 32.69461 -16.77643 169 ft 18 kts 226°
2026-05-06 15:50 32.69391 -16.77730 169 ft 11 kts 227°
2026-05-06 15:50 32.69349 -16.77769 169 ft 5 kts 174°
2026-05-06 15:51 32.69337 -16.77757 169 ft 0 kts 137°
2026-05-06 15:51 32.69328 -16.77748 169 ft 2 kts 138°
2026-05-06 15:51 32.69315 -16.77734 169 ft 2 kts 139°
2026-05-06 15:51 32.69308 -16.77727 169 ft 1 kts 139°
2026-05-06 15:52 32.69307 -16.77726 169 ft 0 kts 139°